User: anonymous   Login
Location: Montague
(41.3030°N, 74.7940°W)
Time: 08:11:31
(UTC-04:00)
Language:

Cosmos 1461 - Orbit

View from above orbital plane
View from above orbital plane
View from above satellite
View from above satellite

Ground track
Ground track

The orbit data is extracted from the following two-line orbital elements,

1 14064U 83044A   17235.07528093  .00000336  00000-0  44000-4 0  9990
2 14064  65.0008  77.8715 0098217   8.5083 351.7668 14.93705765733345
Epoch (UTC): 23 August 2017 01:48:24
Eccentricity: 0.0098217
inclination: 65.0008°
perigee height: 518 km
apogee height: 655 km
right ascension of ascending node: 77.8715°
argument of perigee: 8.5083°
revolutions per day: 14.93705765
mean anomaly at epoch: 351.7668°
orbit number at epoch: 73334

The dashed part of the orbit path shows where the satellite is in the earth's shadow,  

DLR